NGN7501 LPPR-EDDG

Flight info

Callsign NGN7501
Flight time 2h 16m
Altitude 36000
Route TURON DCT ROXER DCT LOTEE DCT RATUF DCT ERIGA DCT MOKOR DCT ANG UL976 OBATO UN873 BAZOS DCT CMB DCT MEDIL/N0443F370 DCT DIBIR DCT LMA DCT ERKUM L179 MEVEL
Aircraft A320/M-SDE3FGHIRWY/LB1

Departure

Time 2026-05-04 12:18
Airport Francisco de Sá Carneiro Airport (LPPR)

Arrival

Time 2026-05-04 14:35
Airport Münster Osnabrück Airport (EDDG)
Time Latitude Longitude Altitude Speed Heading
2026-05-04 11:40 41.23568 -8.67504 236 ft 0 kts 258°
2026-05-04 12:06 41.23571 -8.67483 241 ft 4 kts 256°
2026-05-04 12:06 41.23579 -8.67449 239 ft 4 kts 243°
2026-05-04 12:07 41.23594 -8.67422 237 ft 4 kts 200°
2026-05-04 12:07 41.23605 -8.67419 237 ft 0 kts 167°
2026-05-04 12:14 41.23555 -8.67406 237 ft 8 kts 169°
2026-05-04 12:15 41.23493 -8.67390 237 ft 10 kts 168°
2026-05-04 12:15 41.23420 -8.67372 237 ft 12 kts 170°
2026-05-04 12:15 41.23340 -8.67397 239 ft 14 kts 233°
2026-05-04 12:15 41.23318 -8.67528 236 ft 12 kts 258°
2026-05-04 12:16 41.23306 -8.67603 237 ft 9 kts 258°
2026-05-04 12:16 41.23294 -8.67710 239 ft 12 kts 280°
2026-05-04 12:16 41.23328 -8.67736 239 ft 0 kts 348°
2026-05-04 12:17 41.23330 -8.67737 239 ft 2 kts 348°
2026-05-04 12:17 41.23444 -8.67768 238 ft 45 kts 348°
2026-05-04 12:17 41.23975 -8.67907 218 ft 108 kts 349°
2026-05-04 12:18 41.24874 -8.68146 201 ft 155 kts 348°
2026-05-04 12:18 41.25958 -8.68435 745 ft 154 kts 346°
2026-05-04 12:18 41.26982 -8.68708 1522 ft 147 kts 346°
2026-05-04 12:18 41.27982 -8.68981 2115 ft 149 kts 345°
2026-05-04 12:19 41.29054 -8.69270 2489 ft 165 kts 347°
2026-05-04 12:19 41.30250 -8.69556 2888 ft 181 kts 347°
2026-05-04 12:19 41.31525 -8.69857 3290 ft 195 kts 347°
2026-05-04 12:19 41.32903 -8.70189 3719 ft 210 kts 347°
2026-05-04 12:20 41.34410 -8.70516 4183 ft 228 kts 348°
2026-05-04 12:20 41.36036 -8.70842 4755 ft 244 kts 349°
2026-05-04 12:20 41.37755 -8.71210 5440 ft 255 kts 347°
2026-05-04 12:20 41.38810 -8.71482 5893 ft 260 kts 346°
2026-05-04 12:21 41.40589 -8.72020 6723 ft 265 kts 345°
2026-05-04 12:21 41.42419 -8.72442 7521 ft 271 kts 354°
2026-05-04 12:21 41.44318 -8.72271 8333 ft 277 kts
2026-05-04 12:21 41.46219 -8.71725 9142 ft 284 kts 18°
2026-05-04 12:22 41.47998 -8.70516 9934 ft 290 kts 26°
2026-05-04 12:22 41.49784 -8.69184 10436 ft 304 kts 27°
2026-05-04 12:22 41.51700 -8.67746 10627 ft 327 kts 27°
2026-05-04 12:22 41.53747 -8.66203 10864 ft 346 kts 27°
2026-05-04 12:23 41.55865 -8.64601 11438 ft 353 kts 27°
2026-05-04 12:23 41.58013 -8.62975 12095 ft 357 kts 27°
2026-05-04 12:23 41.60188 -8.61328 12741 ft 361 kts 27°
2026-05-04 12:23 41.62388 -8.59662 13386 ft 366 kts 27°
2026-05-04 12:24 41.64612 -8.57974 14031 ft 370 kts 27°
2026-05-04 12:24 41.66862 -8.56264 14602 ft 374 kts 27°
2026-05-04 12:24 41.69134 -8.54537 15164 ft 377 kts 27°
2026-05-04 12:24 41.71428 -8.52790 15734 ft 381 kts 26°
2026-05-04 12:25 41.73745 -8.51028 16298 ft 385 kts 26°
2026-05-04 12:25 41.76089 -8.49250 16872 ft 389 kts 26°
2026-05-04 12:25 41.78458 -8.47455 17435 ft 393 kts 26°
2026-05-04 12:25 41.80847 -8.45641 18019 ft 397 kts 26°
2026-05-04 12:26 41.83266 -8.43801 18609 ft 402 kts 26°
2026-05-04 12:26 41.85706 -8.41939 19128 ft 405 kts 26°
2026-05-04 12:26 41.88169 -8.40056 19669 ft 409 kts 26°
2026-05-04 12:26 41.90652 -8.38155 20212 ft 413 kts 25°
2026-05-04 12:27 41.93158 -8.36238 20682 ft 417 kts 25°
2026-05-04 12:27 41.95689 -8.34299 21213 ft 421 kts 25°
2026-05-04 12:27 41.98243 -8.32340 21712 ft 424 kts 25°
2026-05-04 12:27 42.00818 -8.30363 22192 ft 428 kts 25°
2026-05-04 12:28 42.03413 -8.28368 22657 ft 432 kts 25°
2026-05-04 12:28 42.06034 -8.26353 23098 ft 435 kts 25°
2026-05-04 12:28 42.08675 -8.24323 23558 ft 439 kts 25°
2026-05-04 12:28 42.11337 -8.22274 23944 ft 442 kts 25°
2026-05-04 12:29 42.14015 -8.20209 24314 ft 445 kts 25°
2026-05-04 12:29 42.16709 -8.18126 24685 ft 448 kts 25°
2026-05-04 12:29 42.19421 -8.16031 25034 ft 450 kts 25°
2026-05-04 12:29 42.22147 -8.13923 25381 ft 453 kts 26°
2026-05-04 12:30 42.24887 -8.11804 25723 ft 456 kts 25°
2026-05-04 12:30 42.27645 -8.09671 26079 ft 458 kts 26°
2026-05-04 12:30 42.30417 -8.07518 26420 ft 461 kts 26°
2026-05-04 12:30 42.33204 -8.05349 26776 ft 463 kts 26°
2026-05-04 12:31 42.36004 -8.03170 27116 ft 466 kts 26°
2026-05-04 12:31 42.38825 -8.00975 27450 ft 469 kts 26°
2026-05-04 12:31 42.41661 -7.98765 27778 ft 471 kts 26°
2026-05-04 12:31 42.44511 -7.96544 28099 ft 474 kts 26°
2026-05-04 12:32 42.47382 -7.94308 28418 ft 477 kts 26°
2026-05-04 12:32 42.53135 -7.89816 29266 ft 477 kts 26°
2026-05-04 12:32 42.56002 -7.87571 29707 ft 476 kts 26°
2026-05-04 12:33 42.58876 -7.85319 30160 ft 476 kts 26°
2026-05-04 12:33 42.61740 -7.83070 30545 ft 476 kts 26°
2026-05-04 12:33 42.64601 -7.80821 30955 ft 475 kts 26°
2026-05-04 12:33 42.67456 -7.78576 31386 ft 473 kts 26°
2026-05-04 12:34 42.70297 -7.76339 31817 ft 472 kts 27°
2026-05-04 12:34 42.73132 -7.74102 32258 ft 470 kts 27°
2026-05-04 12:34 42.75957 -7.71868 32693 ft 469 kts 27°
2026-05-04 12:34 42.78771 -7.69640 33137 ft 467 kts 27°
2026-05-04 12:35 42.81579 -7.67419 33590 ft 466 kts 27°
2026-05-04 12:35 42.84377 -7.65207 34043 ft 464 kts 27°
2026-05-04 12:35 42.87163 -7.63001 34401 ft 463 kts 27°
2026-05-04 12:35 42.89948 -7.60793 34714 ft 462 kts 27°
2026-05-04 12:36 42.92726 -7.58588 35011 ft 462 kts 27°
2026-05-04 12:36 42.95509 -7.56378 35301 ft 462 kts 27°
2026-05-04 12:36 42.98287 -7.54170 35593 ft 462 kts 27°
2026-05-04 12:36 43.01066 -7.51964 35874 ft 462 kts 27°
2026-05-04 12:37 43.03845 -7.49759 36024 ft 463 kts 27°
2026-05-04 12:37 43.09466 -7.45281 36054 ft 471 kts 27°
2026-05-04 12:38 43.15132 -7.40731 36051 ft 472 kts 28°
2026-05-04 12:38 43.20794 -7.36156 36048 ft 473 kts 30°
2026-05-04 12:39 43.26140 -7.30840 36048 ft 475 kts 34°
2026-05-04 12:39 43.31439 -7.25420 36049 ft 475 kts 34°
2026-05-04 12:40 43.36734 -7.19984 36050 ft 475 kts 34°
2026-05-04 12:40 43.42031 -7.14541 36049 ft 475 kts 34°
2026-05-04 12:41 43.47332 -7.09089 36051 ft 476 kts 35°
2026-05-04 12:41 43.52628 -7.03621 36052 ft 476 kts 35°
2026-05-04 12:42 43.57919 -6.98144 36053 ft 475 kts 35°
2026-05-04 12:42 43.63211 -6.92654 36054 ft 475 kts 35°
2026-05-04 12:43 43.68493 -6.87160 36052 ft 475 kts 35°
2026-05-04 12:43 43.73781 -6.81661 36053 ft 475 kts 35°
2026-05-04 12:44 43.79064 -6.76156 36052 ft 475 kts 36°
2026-05-04 12:44 43.84342 -6.70632 36054 ft 475 kts 36°
2026-05-04 12:45 43.89612 -6.65105 36052 ft 475 kts 36°
2026-05-04 12:45 43.94882 -6.59564 36049 ft 475 kts 36°
2026-05-04 12:46 44.00143 -6.54021 36050 ft 475 kts 36°
2026-05-04 12:46 44.05408 -6.48474 36048 ft 475 kts 36°
2026-05-04 12:47 44.10669 -6.42916 36048 ft 475 kts 36°
2026-05-04 12:47 44.15919 -6.37344 36044 ft 475 kts 36°
2026-05-04 12:48 44.21165 -6.31758 36039 ft 475 kts 36°
2026-05-04 12:48 44.26412 -6.26158 36042 ft 475 kts 37°
2026-05-04 12:49 44.31658 -6.20556 36040 ft 475 kts 37°
2026-05-04 12:49 44.36904 -6.14952 36039 ft 475 kts 37°
2026-05-04 12:50 44.42144 -6.09330 36041 ft 475 kts 37°
2026-05-04 12:50 44.47381 -6.03697 36039 ft 475 kts 37°
2026-05-04 12:51 44.52611 -5.98055 36038 ft 475 kts 37°
2026-05-04 12:51 44.57843 -5.92398 36040 ft 475 kts 37°
2026-05-04 12:52 44.63079 -5.86743 36033 ft 475 kts 37°
2026-05-04 12:52 44.68111 -5.80741 36032 ft 475 kts 43°
2026-05-04 12:53 44.72890 -5.74331 36031 ft 475 kts 43°
2026-05-04 12:53 44.77674 -5.67922 36034 ft 475 kts 43°
2026-05-04 12:54 44.82459 -5.61511 36033 ft 475 kts 44°
2026-05-04 12:54 44.87233 -5.55072 36031 ft 475 kts 44°
2026-05-04 12:55 44.91196 -5.49711 36032 ft 475 kts 44°
2026-05-04 12:55 44.95967 -5.43251 36026 ft 475 kts 44°
2026-05-04 12:56 45.00732 -5.36793 36027 ft 474 kts 44°
2026-05-04 12:56 45.05496 -5.30337 36030 ft 474 kts 44°
2026-05-04 12:57 45.10256 -5.23852 36028 ft 475 kts 44°
2026-05-04 12:57 45.15009 -5.17350 36027 ft 475 kts 44°
2026-05-04 12:58 45.19768 -5.10836 36026 ft 475 kts 44°
2026-05-04 12:58 45.24523 -5.04315 36027 ft 475 kts 44°
2026-05-04 12:59 45.29273 -4.97789 36025 ft 475 kts 45°
2026-05-04 12:59 45.34021 -4.91241 36024 ft 476 kts 45°
2026-05-04 13:00 45.38766 -4.84681 36027 ft 476 kts 45°
2026-05-04 13:00 45.43508 -4.78114 36028 ft 476 kts 45°
2026-05-04 13:01 45.48245 -4.71535 36027 ft 476 kts 45°
2026-05-04 13:01 45.52974 -4.64943 36025 ft 475 kts 45°
2026-05-04 13:02 45.57698 -4.58344 36023 ft 475 kts 45°
2026-05-04 13:02 45.62418 -4.51732 36022 ft 475 kts 45°
2026-05-04 13:03 45.67130 -4.45116 36025 ft 475 kts 45°
2026-05-04 13:03 45.71840 -4.38482 36025 ft 475 kts 45°
2026-05-04 13:04 45.76543 -4.31851 36021 ft 474 kts 45°
2026-05-04 13:04 45.81242 -4.25211 36024 ft 474 kts 45°
2026-05-04 13:05 45.85936 -4.18564 36025 ft 474 kts 45°
2026-05-04 13:05 45.90588 -4.11953 36022 ft 473 kts 45°
2026-05-04 13:06 45.95294 -4.05256 36022 ft 473 kts 45°
2026-05-04 13:06 45.99961 -3.98592 36017 ft 473 kts 45°
2026-05-04 13:07 46.04591 -3.91959 36017 ft 473 kts 46°
2026-05-04 13:07 46.09245 -3.85275 36015 ft 472 kts 46°
2026-05-04 13:08 46.13921 -3.78542 36020 ft 472 kts 46°
2026-05-04 13:08 46.18559 -3.71840 36015 ft 472 kts 46°
2026-05-04 13:09 46.22897 -3.64780 36016 ft 469 kts 55°
2026-05-04 13:09 46.26730 -3.57144 36013 ft 469 kts 55°
2026-05-04 13:10 46.30560 -3.49508 36011 ft 469 kts 55°
2026-05-04 13:10 46.34379 -3.41859 36012 ft 469 kts 56°
2026-05-04 13:11 46.38188 -3.34195 36015 ft 469 kts 56°
2026-05-04 13:11 46.41991 -3.26530 36012 ft 468 kts 56°
2026-05-04 13:12 46.45792 -3.18863 36011 ft 468 kts 56°
2026-05-04 13:12 46.49583 -3.11182 36011 ft 468 kts 56°
2026-05-04 13:13 46.53369 -3.03495 36009 ft 468 kts 56°
2026-05-04 13:13 46.57153 -2.95791 36009 ft 468 kts 56°
2026-05-04 13:14 46.60932 -2.88079 36007 ft 468 kts 56°
2026-05-04 13:14 46.64710 -2.80344 36005 ft 469 kts 57°
2026-05-04 13:15 46.68479 -2.72598 36002 ft 469 kts 57°
2026-05-04 13:15 46.72211 -2.64797 36000 ft 469 kts 58°
2026-05-04 13:16 46.75880 -2.56930 36000 ft 469 kts 58°
2026-05-04 13:16 46.79525 -2.49084 35999 ft 470 kts 58°
2026-05-04 13:17 46.83224 -2.41129 35996 ft 471 kts 58°
2026-05-04 13:17 46.86875 -2.33265 35992 ft 471 kts 58°
2026-05-04 13:18 46.90546 -2.25331 35987 ft 471 kts 58°
2026-05-04 13:18 46.94215 -2.17379 35990 ft 472 kts 58°
2026-05-04 13:19 46.97885 -2.09415 35991 ft 472 kts 58°
2026-05-04 13:19 47.01547 -2.01422 35991 ft 472 kts 58°
2026-05-04 13:20 47.05201 -1.93430 35989 ft 472 kts 58°
2026-05-04 13:20 47.08856 -1.85438 35991 ft 471 kts 58°
2026-05-04 13:21 47.12504 -1.77438 35993 ft 471 kts 58°
2026-05-04 13:21 47.16143 -1.69428 35992 ft 471 kts 59°
2026-05-04 13:22 47.19761 -1.61399 35994 ft 471 kts 59°
2026-05-04 13:22 47.23378 -1.53350 35992 ft 471 kts 59°
2026-05-04 13:23 47.26997 -1.45303 35989 ft 471 kts 59°
2026-05-04 13:23 47.30609 -1.37248 35988 ft 471 kts 59°
2026-05-04 13:24 47.34215 -1.29173 35986 ft 472 kts 59°
2026-05-04 13:24 47.37821 -1.21088 35982 ft 472 kts 59°
2026-05-04 13:25 47.43225 -1.08930 35976 ft 472 kts 59°
2026-05-04 13:25 47.46823 -1.00802 35980 ft 473 kts 59°
2026-05-04 13:26 47.50414 -0.92648 35972 ft 473 kts 59°
2026-05-04 13:26 47.54365 -0.84861 35981 ft 477 kts 47°
2026-05-04 13:27 47.59521 -0.78643 35971 ft 478 kts 40°
2026-05-04 13:27 47.64532 -0.72173 35973 ft 478 kts 44°
2026-05-04 13:28 47.69437 -0.65512 35975 ft 478 kts 44°
2026-05-04 13:28 47.74326 -0.58819 35976 ft 478 kts 44°
2026-05-04 13:29 47.79243 -0.52147 35979 ft 478 kts 44°
2026-05-04 13:29 47.84167 -0.45472 35984 ft 479 kts 44°
2026-05-04 13:30 47.89081 -0.38802 35980 ft 478 kts 44°
2026-05-04 13:30 47.93987 -0.32119 35978 ft 478 kts 44°
2026-05-04 13:31 47.98887 -0.25421 35978 ft 478 kts 44°
2026-05-04 13:31 48.03777 -0.18706 35981 ft 477 kts 44°
2026-05-04 13:32 48.08659 -0.11976 35984 ft 477 kts 44°
2026-05-04 13:32 48.13533 -0.05244 35983 ft 477 kts 44°
2026-05-04 13:33 48.18413 0.01486 35978 ft 476 kts 44°
2026-05-04 13:33 48.23283 0.08218 35977 ft 476 kts 44°
2026-05-04 13:34 48.28140 0.14982 35986 ft 476 kts 44°
2026-05-04 13:34 48.32198 0.20659 35981 ft 476 kts 44°
2026-05-04 13:35 48.39472 0.30817 35981 ft 476 kts 44°
2026-05-04 13:36 48.44315 0.37604 35973 ft 476 kts 44°
2026-05-04 13:36 48.49154 0.44399 35982 ft 476 kts 44°
2026-05-04 13:37 48.53984 0.51219 35980 ft 476 kts 45°
2026-05-04 13:37 48.58813 0.58055 35980 ft 476 kts 45°
2026-05-04 13:38 48.63638 0.64909 35986 ft 476 kts 45°
2026-05-04 13:38 48.68433 0.71717 35981 ft 476 kts 45°
2026-05-04 13:39 48.73251 0.78587 35985 ft 476 kts 45°
2026-05-04 13:39 48.78063 0.85471 35979 ft 475 kts 45°
2026-05-04 13:40 48.82867 0.92362 35982 ft 475 kts 45°
2026-05-04 13:40 48.87669 0.99266 35983 ft 475 kts 45°
2026-05-04 13:41 48.92468 1.06175 35985 ft 475 kts 45°
2026-05-04 13:41 48.97267 1.13096 35986 ft 475 kts 45°
2026-05-04 13:42 49.04440 1.23514 35995 ft 475 kts 45°
2026-05-04 13:42 49.09217 1.30477 35987 ft 475 kts 45°
2026-05-04 13:43 49.13984 1.37435 35983 ft 474 kts 45°
2026-05-04 13:43 49.18753 1.44417 35981 ft 475 kts 45°
2026-05-04 13:44 49.23513 1.51416 35991 ft 475 kts 45°
2026-05-04 13:44 49.28283 1.58429 35992 ft 475 kts 45°
2026-05-04 13:45 49.33077 1.65417 35992 ft 476 kts 45°
2026-05-04 13:45 49.37904 1.72454 35986 ft 476 kts 45°
2026-05-04 13:46 49.42698 1.79475 35992 ft 476 kts 45°
2026-05-04 13:46 49.47453 1.86468 35988 ft 476 kts 45°
2026-05-04 13:47 49.52210 1.93535 35976 ft 475 kts 47°
2026-05-04 13:47 49.56745 2.00916 35974 ft 474 kts 50°
2026-05-04 13:48 49.61144 2.08575 35973 ft 474 kts 51°
2026-05-04 13:48 49.65505 2.16133 35971 ft 475 kts 50°
2026-05-04 13:49 49.69947 2.23680 35970 ft 475 kts 49°
2026-05-04 13:49 49.74404 2.31219 35965 ft 475 kts 50°
2026-05-04 13:50 49.78848 2.38791 35971 ft 475 kts 50°
2026-05-04 13:50 49.83279 2.46395 35973 ft 475 kts 50°
2026-05-04 13:51 49.87704 2.54009 35973 ft 476 kts 50°
2026-05-04 13:51 49.92161 2.61683 35977 ft 476 kts 50°
2026-05-04 13:52 49.98797 2.73157 35976 ft 476 kts 50°
2026-05-04 13:53 50.03186 2.80768 35975 ft 476 kts 50°
2026-05-04 13:53 50.07599 2.88443 35971 ft 476 kts 50°
2026-05-04 13:54 50.14208 2.99993 35971 ft 476 kts 50°
2026-05-04 13:55 50.20766 3.11636 35972 ft 476 kts 55°
2026-05-04 13:55 50.23982 3.20538 35974 ft 469 kts 72°
2026-05-04 13:55 50.25056 3.25334 35977 ft 468 kts 74°
2026-05-04 13:56 50.27171 3.34948 35972 ft 468 kts 74°
2026-05-04 13:57 50.30319 3.49409 35970 ft 468 kts 74°
2026-05-04 13:58 50.34732 3.68620 35977 ft 473 kts 64°
2026-05-04 13:58 50.39938 3.81802 35978 ft 475 kts 60°
2026-05-04 13:59 50.43438 3.90601 35985 ft 475 kts 60°
2026-05-04 14:00 50.48665 4.03849 35994 ft 476 kts 60°
2026-05-04 14:00 50.53885 4.17128 35999 ft 477 kts 60°
2026-05-04 14:01 50.57365 4.26022 36004 ft 477 kts 61°
2026-05-04 14:02 50.62581 4.39392 36000 ft 478 kts 61°
2026-05-04 14:02 50.66058 4.48322 35995 ft 478 kts 61°
2026-05-04 14:03 50.69528 4.57284 35993 ft 479 kts 61°
2026-05-04 14:03 50.72992 4.66280 36000 ft 480 kts 61°
2026-05-04 14:04 50.78181 4.79807 35998 ft 480 kts 61°
2026-05-04 14:04 50.81646 4.88840 35996 ft 480 kts 61°
2026-05-04 14:05 50.86823 5.02423 35994 ft 481 kts 61°
2026-05-04 14:06 50.90260 5.11509 35993 ft 481 kts 61°
2026-05-04 14:06 50.93693 5.20614 35993 ft 481 kts 61°
2026-05-04 14:07 50.97131 5.29742 35988 ft 482 kts 61°
2026-05-04 14:07 51.00560 5.38879 35989 ft 482 kts 61°
2026-05-04 14:08 51.03985 5.48029 35990 ft 481 kts 61°
2026-05-04 14:08 51.05689 5.52606 35441 ft 481 kts 62°
2026-05-04 14:08 51.07394 5.57198 34724 ft 483 kts 62°
2026-05-04 14:08 51.09107 5.61807 34002 ft 486 kts 60°
2026-05-04 14:09 51.13259 5.70393 32380 ft 491 kts 53°
2026-05-04 14:09 51.15395 5.74651 31594 ft 491 kts 53°
2026-05-04 14:10 51.19649 5.83156 30005 ft 491 kts 53°
2026-05-04 14:10 51.21768 5.87416 29254 ft 488 kts 53°
2026-05-04 14:10 51.23864 5.91637 28774 ft 484 kts 53°
2026-05-04 14:10 51.25949 5.95834 28239 ft 480 kts 53°
2026-05-04 14:11 51.28015 5.99998 27661 ft 476 kts 53°
2026-05-04 14:11 51.32074 6.08213 26451 ft 467 kts 53°
2026-05-04 14:11 51.34077 6.12281 25881 ft 463 kts 53°
2026-05-04 14:12 51.35389 6.14950 25506 ft 460 kts 53°
2026-05-04 14:12 51.37322 6.18882 24937 ft 456 kts 53°
2026-05-04 14:12 51.41210 6.26812 23779 ft 449 kts 53°
2026-05-04 14:13 51.43129 6.30729 23173 ft 445 kts 53°
2026-05-04 14:13 51.45033 6.34623 22581 ft 441 kts 53°
2026-05-04 14:13 51.46912 6.38472 22040 ft 436 kts 53°
2026-05-04 14:13 51.48769 6.42287 21520 ft 431 kts 53°
2026-05-04 14:14 51.50606 6.46062 21032 ft 427 kts 53°
2026-05-04 14:14 51.54221 6.53505 20144 ft 418 kts 53°
2026-05-04 14:14 51.55998 6.57175 19717 ft 414 kts 53°
2026-05-04 14:15 51.59498 6.64416 19010 ft 407 kts 53°
2026-05-04 14:15 51.62962 6.71631 18988 ft 408 kts 53°
2026-05-04 14:16 51.66361 6.78954 18987 ft 408 kts 54°
2026-05-04 14:16 51.68044 6.82636 18983 ft 408 kts 54°
2026-05-04 14:17 51.71408 6.89986 18523 ft 405 kts 54°
2026-05-04 14:17 51.73004 6.93712 18286 ft 402 kts 63°
2026-05-04 14:17 51.74718 7.02181 17749 ft 397 kts 76°
2026-05-04 14:18 51.75433 7.06475 17481 ft 395 kts 76°
2026-05-04 14:18 51.76824 7.14902 16964 ft 392 kts 76°
2026-05-04 14:19 51.78207 7.23388 16436 ft 389 kts 76°
2026-05-04 14:19 51.78891 7.27617 16178 ft 388 kts 76°
2026-05-04 14:19 51.79568 7.31828 15923 ft 386 kts 76°
2026-05-04 14:19 51.80219 7.35889 15673 ft 384 kts 76°
2026-05-04 14:20 51.80881 7.40045 15140 ft 380 kts 76°
2026-05-04 14:20 51.81531 7.44163 14601 ft 377 kts 76°
2026-05-04 14:20 51.82258 7.48220 14096 ft 374 kts 73°
2026-05-04 14:21 51.83750 7.56206 12994 ft 368 kts 73°
2026-05-04 14:21 51.84486 7.60151 12425 ft 365 kts 73°
2026-05-04 14:21 51.85218 7.64065 11878 ft 362 kts 73°
2026-05-04 14:21 51.85945 7.67949 11342 ft 359 kts 73°
2026-05-04 14:22 51.86667 7.71801 10816 ft 356 kts 73°
2026-05-04 14:22 51.87399 7.75613 10328 ft 353 kts 70°
2026-05-04 14:22 51.88392 7.79147 10193 ft 334 kts 64°
2026-05-04 14:22 51.89389 7.82393 10044 ft 310 kts 64°
2026-05-04 14:23 51.91270 7.88479 9374 ft 298 kts 64°
2026-05-04 14:23 51.92199 7.91470 9043 ft 296 kts 64°
2026-05-04 14:23 51.93125 7.94444 8710 ft 295 kts 64°
2026-05-04 14:24 51.94046 7.97400 8387 ft 293 kts 64°
2026-05-04 14:24 51.94967 8.00343 8053 ft 292 kts 62°
2026-05-04 14:24 51.96127 8.03024 7714 ft 291 kts 50°
2026-05-04 14:24 51.97443 8.05506 7394 ft 289 kts 49°
2026-05-04 14:25 51.98658 8.07759 7110 ft 288 kts 49°
2026-05-04 14:25 52.00896 8.11893 6583 ft 286 kts 49°
2026-05-04 14:25 52.02202 8.14308 6275 ft 284 kts 49°
2026-05-04 14:26 52.03504 8.16715 5956 ft 283 kts 49°
2026-05-04 14:26 52.04799 8.19108 5632 ft 281 kts 47°
2026-05-04 14:26 52.06310 8.21083 5322 ft 279 kts 26°
2026-05-04 14:26 52.08127 8.21931 5168 ft 268 kts
2026-05-04 14:27 52.09927 8.21614 5040 ft 255 kts 340°
2026-05-04 14:27 52.11449 8.20304 4916 ft 242 kts 318°
2026-05-04 14:27 52.12613 8.18400 4710 ft 235 kts 310°
2026-05-04 14:27 52.13721 8.16467 4441 ft 233 kts 310°
2026-05-04 14:28 52.14822 8.14549 4249 ft 231 kts 311°
2026-05-04 14:28 52.15918 8.12645 4099 ft 230 kts 311°
2026-05-04 14:28 52.17003 8.10762 3940 ft 224 kts 311°
2026-05-04 14:28 52.18048 8.08946 3803 ft 216 kts 311°
2026-05-04 14:29 52.19991 8.05445 3550 ft 200 kts 299°
2026-05-04 14:29 52.20322 8.01251 3295 ft 190 kts 251°
2026-05-04 14:30 52.19896 7.99216 3167 ft 188 kts 251°
2026-05-04 14:30 52.19481 7.97215 3089 ft 186 kts 252°
2026-05-04 14:30 52.18669 7.93314 2993 ft 176 kts 251°
2026-05-04 14:31 52.18276 7.91429 2888 ft 174 kts 251°
2026-05-04 14:31 52.17538 7.87891 2495 ft 153 kts 251°
2026-05-04 14:32 52.16891 7.84799 2115 ft 140 kts 251°
2026-05-04 14:32 52.16579 7.83309 1924 ft 138 kts 251°
2026-05-04 14:32 52.16269 7.81821 1732 ft 140 kts 252°
2026-05-04 14:32 52.15966 7.80327 1542 ft 138 kts 252°
2026-05-04 14:33 52.15652 7.78859 1359 ft 137 kts 251°
2026-05-04 14:33 52.15337 7.77386 1170 ft 138 kts 251°
2026-05-04 14:33 52.15034 7.75915 996 ft 136 kts 252°
2026-05-04 14:33 52.14738 7.74459 789 ft 135 kts 252°
2026-05-04 14:34 52.14428 7.73017 603 ft 135 kts 251°
2026-05-04 14:34 52.14121 7.71584 430 ft 133 kts 252°
2026-05-04 14:34 52.13816 7.70154 256 ft 133 kts 252°
2026-05-04 14:34 52.13533 7.68780 166 ft 110 kts 251°
2026-05-04 14:35 52.13367 7.67994 167 ft 54 kts 251°
2026-05-04 14:35 52.13262 7.67502 164 ft 42 kts 251°
2026-05-04 14:35 52.13192 7.67178 164 ft 25 kts 251°
2026-05-04 14:35 52.13133 7.67047 165 ft 10 kts 169°
2026-05-04 14:36 52.13054 7.67106 165 ft 15 kts 126°
2026-05-04 14:36 52.13036 7.67288 162 ft 20 kts 75°
2026-05-04 14:36 52.13084 7.67511 162 ft 22 kts 71°
2026-05-04 14:36 52.13138 7.67766 163 ft 25 kts 71°
2026-05-04 14:37 52.13197 7.68039 165 ft 27 kts 70°
2026-05-04 14:37 52.13256 7.68323 166 ft 27 kts 70°
2026-05-04 14:37 52.13319 7.68617 165 ft 29 kts 70°
2026-05-04 14:37 52.13346 7.68840 164 ft 15 kts 117°
2026-05-04 14:38 52.13301 7.68945 164 ft 8 kts 54°
2026-05-04 14:38 52.13319 7.69041 164 ft 10 kts 77°
2026-05-04 14:38 52.13281 7.69105 164 ft 9 kts 160°
2026-05-04 14:38 52.13252 7.69121 164 ft 0 kts 161°